Gainesville, GA

1:56 AM EST on February 25, 2018 (GMT -0500)
Gilmer Memorial

Weather History for KGVL - August, 2013

Change the Weather History Date:

Saturday, August 24, 2013

  Actual Average Record
Temperature  
Mean Temperature 74 °F 78 °F  
Max Temperature 81 °F 86 °F 100 °F (1968)
Min Temperature 67 °F 69 °F 54 °F (1930)
Cooling Degree Days 9 13  
Month to date cooling degree days 252 324  
Year to date cooling degree days 1071 1246  
Since 1 June cooling degree days 926 1071  
Growing Degree Days 24 (Base 50)    
Moisture  
Dew Point 64 °F    
Average Humidity 73    
Maximum Humidity 87    
Minimum Humidity 58    
Precipitation  
Precipitation 0.00 in 0.13 in 2.53 in (1967)
Month to date precipitation 7.11 3.60  
Year to date precipitation 40.21 35.42  
Sea Level Pressure  
Sea Level Pressure 30.19 in    
Wind  
Wind Speed 8 mph (East)    
Max Wind Speed 17 mph    
Max Gust Speed 23 mph    
Visibility 10 miles    
Events      
T = Trace of Precipitation, MM = Missing Value Source: NWS Daily Summary

Daily Weather History Graph

Daily Weather History Graph

Search for Another Location

Airport or City:

Trip Planner

Search our weather history database for the weather conditions in past years. The results will help you decide how hot, cold, wet, or windy it might be!

Date:

Astronomy

Aug. 24, 2013 Rise Set
Actual Time 7:03 AM EDT 8:11 PM EDT
Civil Twilight 6:37 AM EDT 8:37 PM EDT
Nautical Twilight 6:06 AM EDT 9:08 PM EDT
Astronomical Twilight 5:34 AM EDT 9:40 PM EDT
Moon 10:19 PM EDT (8/24) 10:48 AM EDT (8/24)
Length of Visible Light 14h 00m
Length of Day
13h 08m
Waning Gibbous, 84% of the Moon is Illuminated
Aug 24
Waning Gibbous
Aug 28
Last Quarter
Sep 5
New
Sep 12
First Quarter
Sep 19
Full

Hourly Weather History & Observations

Time (EDT) Temp. Heat Index Dew Point Humidity Pressure Visibility Wind Dir Wind Speed Gust Speed Precip Events Conditions
12:53 AM 71.1 °F - 63.0 °F 75% 30.06 in 10.0 mi Variable 4.6 mph - N/A   Partly Cloudy
1:53 AM 68.0 °F - 64.0 °F 87% 30.07 in 10.0 mi Calm Calm - N/A   Clear
2:53 AM 68.0 °F - 64.9 °F 90% 30.07 in 10.0 mi East 3.5 mph - N/A   Clear
3:53 AM 68.0 °F - 64.0 °F 87% 30.07 in 10.0 mi Calm Calm - N/A   Clear
4:53 AM 68.0 °F - 64.0 °F 87% 30.08 in 10.0 mi ENE 3.5 mph - N/A   Clear
5:53 AM 69.1 °F - 64.0 °F 84% 30.12 in 10.0 mi ENE 10.4 mph - N/A   Mostly Cloudy
6:53 AM 68.0 °F - 64.0 °F 87% 30.14 in 10.0 mi East 11.5 mph 19.6 mph N/A   Partly Cloudy
7:53 AM 66.9 °F - 62.1 °F 84% 30.17 in 10.0 mi East 13.8 mph 20.7 mph N/A   Clear
8:53 AM 68.0 °F - 62.1 °F 81% 30.19 in 10.0 mi ENE 13.8 mph 21.9 mph N/A   Clear
9:53 AM 71.1 °F - 63.0 °F 75% 30.20 in 10.0 mi ENE 11.5 mph - N/A   Partly Cloudy
10:53 AM 73.9 °F - 63.0 °F 68% 30.22 in 10.0 mi ENE 15.0 mph - N/A   Partly Cloudy
11:53 AM 75.9 °F - 63.0 °F 64% 30.22 in 10.0 mi East 15.0 mph - N/A   Clear
12:53 PM 77.0 °F - 63.0 °F 62% 30.22 in 10.0 mi East 13.8 mph - N/A   Clear
1:53 PM 79.0 °F - 64.0 °F 60% 30.21 in 10.0 mi East 13.8 mph - N/A   Clear
2:24 PM 78.8 °F - 64.4 °F 61% 30.25 in 10.0 mi East 6.9 mph 17.3 mph N/A   Mostly Cloudy
2:53 PM 79.0 °F - 64.9 °F 62% 30.22 in 10.0 mi East 11.5 mph 17.3 mph N/A   Mostly Cloudy
3:12 PM 80.6 °F 82.3 °F 64.4 °F 58% 30.25 in 10.0 mi ESE 6.9 mph - N/A   Scattered Clouds
3:53 PM 81.0 °F 82.7 °F 64.9 °F 58% 30.20 in 10.0 mi East 11.5 mph - N/A   Partly Cloudy
4:21 PM 78.8 °F - 64.4 °F 61% 30.24 in 10.0 mi ENE 8.1 mph - N/A   Mostly Cloudy
4:34 PM 80.6 °F 82.7 °F 66.2 °F 61% 30.24 in 10.0 mi Variable 6.9 mph - N/A   Mostly Cloudy
4:44 PM 78.8 °F - 64.4 °F 61% 30.24 in 10.0 mi East 9.2 mph - N/A   Mostly Cloudy
4:53 PM 79.0 °F - 64.9 °F 62% 30.20 in 10.0 mi ENE 6.9 mph - N/A   Mostly Cloudy
5:53 PM 78.1 °F - 64.9 °F 64% 30.19 in 10.0 mi East 11.5 mph - N/A   Partly Cloudy
6:53 PM 77.0 °F - 64.9 °F 66% 30.20 in 10.0 mi East 8.1 mph - N/A   Clear
7:53 PM 73.9 °F - 64.9 °F 73% 30.21 in 10.0 mi East 5.8 mph - N/A   Clear
8:53 PM 72.0 °F - 64.9 °F 78% 30.23 in 10.0 mi Calm Calm - N/A   Clear
9:53 PM 70.0 °F - 64.9 °F 84% 30.25 in 10.0 mi East 3.5 mph - N/A   Partly Cloudy
10:53 PM 70.0 °F - 64.9 °F 84% 30.26 in 10.0 mi East 3.5 mph - N/A   Partly Cloudy
11:53 PM 69.1 °F - 64.0 °F 84% 30.28 in 10.0 mi NE 4.6 mph - N/A   Clear